OBJECT A, 60468

Orbit data source: Space-Track

You're viewing an Uncataloged Satellite

Recently launched and/or uncataloged satellites may have evolving metadata. Metadata may include but not limited to: Owner, Maufacturer, Bus, Motor, and Mission.

OBJECT A, 60468 is a satellite in SSO that was launched on Fri, 16 Aug 2024 UTC launched from the Air Force Western Test Range (AFWTR). Unknown objects in Earth's orbit typically refer to objects detected orbiting the Earth but have not yet been identified or cataloged. These objects could be anything from previously untracked satellites, spent rocket stages, debris from satellite collisions, or even natural meteoroids temporarily captured by Earth's gravity.

Loading next visibility...
Identifier
60468, 2024-149A
Orbit
SSO
Country
Flag of TBDTBD
Related business
None
Manufacturer
Unknown
Mission
Operational Commercial Imaging
Bus & Motor
Unknown
Mass
Unknown
Launch date (UTC)
2024-08-16 (2 years ago)
Launch vehicle
Unknown
Launch site
Air Force Western Test Range (AFWTR)
Object type
Unknown
Shape & HBR
Box + 2 Pan, 0.3 m
Radar Cross Section
0.072 m², Medium (>0.1 m² and < 1m²)

Expand to show TLE details & history
Last TLE update: 1 day ago

TLE from 1 day ago
0 OBJECT A
1 60468U 24149A   26135.18194993  .00004957  00000-0  16126-3 0  9999
2 60468  97.3737 215.2287 0002801   9.7218 350.4078 15.32343713 97002
Epoch: 2026-05-15T04:22Z
TLE epoch observation values (Epoch: 2026-05-15T04:22:00.473Z)
Latitude
-0.00001°
Longitude
-83.19021°
Altitude
470.038 km
Speed
7.632 km/s
True Right ascension
14h 20m 54s
True Declination
0° 00' 00"
Sunlit
Object was in full shadow at epoch
Visualization orbit readout
Latitude
Unknown
Longitude
Unknown
Altitude
Unknown
Speed
Unknown
Apparent Right ascension
Unknown
Apparent Declination
Unknown
Sunlit
N/A
Visualization observer readout
Local Sidereal Time
17:05:47
Azimuth
Unknown
Elevation
Unknown
Doppler factor
Unknown
Orbital elements
Apogee altitude
467.687 km
Perigee altitude
463.853 km
Semi-major axis
6,843.907 km
Eccentricity
0.00028
Inclination
97.3737°
RAAN
215.2287°
Arg. of periapsis
9.7218°
True anomaly
350.40245°
Mean anomaly
350.4078°
Eccentric anomaly
350.40513°
Mean motion
3.83343 °/min
Orbital period
93.91 mins
BSTAR
0.00016126
Loading maneuver chart data...
Computing Atmospheric mass density...
Loading historical data...
Loading historical data...
Loading historical data...
Loading historical data...
Loading historical data...
Loading historical data...
Loading historical data...

Documentation

Showing up to 5 results
|